Location: Unspecified
(0.0000°N, 0.0000°E)
Time: 12:35:46
(UTC+00:00)

DMSP B5D2-8 - Visible Passes

Search period start: 23 October 2019 00:00
Search period end: 02 November 2019 00:00
Orbit: 835 x 843 km, 98.8° (Epoch: 22 October)

Date Brightness Start Highest point End Pass type
(mag) Time Alt. Az. Time Alt. Az. Time Alt. Az.
23 Oct 6.9 18:13:44 10° SSW 18:18:28 31° WSW 18:23:13 10° NW visible
24 Oct 5.6 05:15:30 10° NNE 05:20:47 56° ESE 05:26:06 10° S visible
24 Oct 6.0 17:58:10 10° S 18:03:22 46° WSW 18:08:34 10° NNW visible
25 Oct 6.5 05:00:44 10° NE 05:05:41 37° ESE 05:10:38 10° S visible
26 Oct 7.2 04:46:14 10° NE 04:50:35 25° ESE 04:54:54 10° SSE visible
27 Oct 7.8 04:32:11 10° ENE 04:35:28 16° ESE 04:38:45 10° SE visible
28 Oct 8.3 04:19:47 10° E 04:20:23 10° ESE 04:20:58 10° ESE visible
28 Oct 7.9 18:39:51 10° SW 18:43:04 16° WSW 18:46:17 10° WNW visible
29 Oct 7.3 18:23:39 10° SSW 18:27:58 24° WSW 18:32:17 10° NW visible
30 Oct 6.6 18:07:54 10° SSW 18:12:52 36° WSW 18:17:48 10° NW visible
31 Oct 5.9 05:09:58 10° NNE 05:15:10 47° ESE 05:20:22 10° S visible
01 Nov 6.8 04:55:18 10° NE 05:00:03 32° ESE 05:04:48 10° SSE visible
